Skip Page Navigation
NASA JPL Caltech
NASA Logo - Jet Propulsion Laboratory + View the NASA Portal
+ Near-Earth Object (NEO) Program
Search JPL
JPL Home Earth Solar System Stars & Galaxies Technology
JPL Solar System Dynamics
BODIES ORBITS EPHEMERIDES TOOLS PHYSICAL DATA DISCOVERY FAQ SITE MAP
JPL Small-Body Database Browser
Search: [ help ]  
13433 Phelps (1999 VP52)
Classification: Main-belt Asteroid          SPK-ID: 2013433
Ephemeris | Orbit Diagram | Orbital Elements | Physical Parameters | Discovery Circumstances ]

[ show orbit diagram ]
Orbital Elements at Epoch 2457000.5 (2014-Dec-09.0) TDB
Reference: JPL 8 (heliocentric ecliptic J2000)
 Element Value Uncertainty (1-sigma)   Units 
e .1756536768535923 5.6935e-08  
a 2.376089451480883 1.4723e-08 AU
q 1.95872060279523 1.3713e-07 AU
i 5.221494337252456 5.535e-06 deg
node 82.92385803103055 7.0747e-05 deg
peri 243.5001580248859 7.2956e-05 deg
M 124.4732219717414 1.7436e-05 deg
tp 2456537.942170043821
(2013-Sep-02.44217004)
6.3478e-05 JED
period 1337.80435780821
3.66
1.2435e-05
3.405e-08
d
yr
n .2690976433877115 2.5012e-09 deg/d
Q 2.793458300166535 1.731e-08 AU
  Orbit Determination Parameters
   # obs. used (total)      809  
   data-arc span      8483 days (23.23 yr)  
   first obs. used      1991-07-14  
   last obs. used      2014-10-04  
   planetary ephem.      DE431  
   SB-pert. ephem.      SB431-BIG16  
   condition code      0  
   fit RMS      .52664  
   data source      ORB  
   producer      Otto Matic  
   solution date      2014-Oct-09 14:25:12  

Additional Information
 Earth MOID = .954275 AU 
 T_jup = 3.515 
[ show covariance matrix ]

Ephemeris | Orbit Diagram | Orbital Elements | Physical Parameters | Discovery Circumstances ]

Physical Parameter Table
Parameter Symbol Value Units Sigma Reference Notes
absolute magnitude H 14.4 mag n/a MPO266029  

13433 Phelps           Discovered 1999 Nov. 3 by the Lincoln Laboratory Near-Earth Asteroid Research Team at Socorro.
Kels Gordon Phelps (b. 1988) is a finalist in the 2002 Discovery Channel Young Scientist Challenge (DCYSC), a middle school science competition, for his biochemistry, medicine, health, and microbiology project. He attends the East Middle School, Butte, Montana.
NOTE: some special characters may not display properly (any characters within {} are an attempt to place the proper accent above a character)
Reference: 20021021/MPCPages.arcLast Updated: 2003-10-02

Alternate Designations
 1999 VP52 = 1991 NN2 = 1997 EA33 = 1998 KO39 
Ephemeris | Orbit Diagram | Orbital Elements | Physical Parameters | Discovery Circumstances ]
ABOUT SSD CREDITS/AWARDS PRIVACY/COPYRIGHT GLOSSARY LINKS
FirstGov 2014-Oct-25 13:27 UT
(server date/time)  
NASA Home Page
Site Manager:   Donald K. Yeomans
Webmaster  Alan B. Chamberlin